| time (UTC) | temp C | wind direction | speed KPH | gust KPH | rain 1hr cm | rain 24hr cm | rain mn cm | humidity % | barometer mb |
| 20260503054906 | 16 | 143 | 0.0 | 1.6 | 0.00 | 0.00 | 0.00 | 69 | 1016.8 |
| 20260503054402 | 16 | 118 | 3.2 | 3.2 | 0.00 | 0.00 | 0.00 | 68 | 1016.7 |
| 20260503053900 | 15 | 120 | 1.6 | 3.2 | 0.00 | 0.00 | 0.00 | 69 | 1016.7 |
| 20260503053358 | 15 | 131 | 1.6 | 3.2 | 0.00 | 0.00 | 0.00 | 70 | 1016.8 |
| 20260503052853 | 15 | 128 | 1.6 | 3.2 | 0.00 | 0.00 | 0.00 | 70 | 1016.8 |
| 20260503052351 | 15 | 145 | 0.0 | 1.6 | 0.00 | 0.00 | 0.00 | 71 | 1016.7 |
| 20260503051847 | 15 | 154 | 1.6 | 3.2 | 0.00 | 0.00 | 0.00 | 71 | 1016.8 |
| 20260503051343 | 15 | 153 | 1.6 | 3.2 | 0.00 | 0.00 | 0.00 | 72 | 1016.8 |
| 20260503050841 | 15 | 147 | 0.0 | 1.6 | 0.00 | 0.00 | 0.00 | 71 | 1016.8 |
| 20260503050336 | 15 | 164 | 0.0 | 3.2 | 0.00 | 0.00 | 0.00 | 71 | 1016.7 |
| 20260503045834 | 15 | 147 | 1.6 | 3.2 | 0.00 | 0.00 | 0.00 | 71 | 1016.7 |
| 20260503045332 | 15 | 152 | 1.6 | 1.6 | 0.00 | 0.00 | 0.00 | 70 | 1016.8 |
| 20260503044828 | 15 | 142 | 1.6 | 1.6 | 0.00 | 0.00 | 0.00 | 70 | 1016.8 |
| 20260503044325 | 16 | 152 | 0.0 | 1.6 | 0.00 | 0.00 | 0.00 | 70 | 1016.7 |
| 20260503043822 | 16 | 153 | 1.6 | 1.6 | 0.00 | 0.00 | 0.00 | 70 | 1016.6 |
| 20260503043319 | 16 | 147 | 0.0 | 1.6 | 0.00 | 0.00 | 0.00 | 70 | 1016.7 |
| 20260503042815 | 16 | 148 | 0.0 | 0.0 | 0.00 | 0.00 | 0.00 | 69 | 1016.5 |
| 20260503042312 | 16 | 146 | 0.0 | 1.6 | 0.00 | 0.00 | 0.00 | 68 | 1016.3 |
| 20260503041808 | 16 | 146 | 1.6 | 1.6 | 0.00 | 0.00 | 0.00 | 68 | 1016.2 |
| 20260503041306 | 16 | 146 | 0.0 | 1.6 | 0.00 | 0.00 | 0.00 | 67 | 1016.5 |
| 20260503040803 | 16 | 144 | 0.0 | 1.6 | 0.00 | 0.00 | 0.00 | 67 | 1016.3 |
| 20260503040301 | 17 | 142 | 1.6 | 1.6 | 0.00 | 0.00 | 0.00 | 66 | 1016.3 |
| 20260503035757 | 17 | 146 | 0.0 | 1.6 | 0.00 | 0.00 | 0.00 | 66 | 1016.0 |
| 20260503035255 | 17 | 140 | 0.0 | 1.6 | 0.00 | 0.00 | 0.00 | 65 | 1016.0 |
| 20260503034752 | 17 | 139 | 0.0 | 1.6 | 0.00 | 0.00 | 0.00 | 65 | 1016.0 |
| 20260503034249 | 17 | 137 | 0.0 | 1.6 | 0.00 | 0.00 | 0.00 | 63 | 1015.9 |
| 20260503033746 | 18 | 131 | 1.6 | 3.2 | 0.00 | 0.00 | 0.00 | 63 | 1015.8 |
| 20260503033244 | 18 | 126 | 1.6 | 3.2 | 0.00 | 0.00 | 0.00 | 62 | 1015.8 |
| 20260503032742 | 18 | 125 | 3.2 | 3.2 | 0.00 | 0.00 | 0.00 | 62 | 1015.7 |
| 20260503032240 | 19 | 154 | 0.0 | 1.6 | 0.00 | 0.00 | 0.00 | 62 | 1015.8 |
| 20260503031737 | 19 | 160 | 0.0 | 1.6 | 0.00 | 0.00 | 0.00 | 59 | 1015.7 |
| 20260503031235 | 19 | 152 | 0.0 | 1.6 | 0.00 | 0.00 | 0.00 | 61 | 1015.7 |
| 20260503030731 | 20 | 172 | 1.6 | 1.6 | 0.00 | 0.00 | 0.00 | 60 | 1015.7 |
| 20260503030227 | 20 | 126 | 0.0 | 1.6 | 0.00 | 0.00 | 0.00 | 59 | 1015.7 |
| 20260503025724 | 20 | 150 | 0.0 | 1.6 | 0.00 | 0.00 | 0.00 | 59 | 1015.6 |
| 20260503025222 | 20 | 135 | 1.6 | 1.6 | 0.00 | 0.00 | 0.00 | 59 | 1015.4 |
| 20260503024718 | 21 | 150 | 1.6 | 11.3 | 0.00 | 0.00 | 0.00 | 55 | 1015.3 |
| 20260503024216 | 21 | 124 | 0.0 | 1.6 | 0.00 | 0.00 | 0.00 | 53 | 1015.4 |
| 20260503023712 | 21 | 149 | 0.0 | 4.8 | 0.00 | 0.00 | 0.00 | 53 | 1015.2 |
| 20260503023204 | 21 | 329 | 3.2 | 4.8 | 0.00 | 0.00 | 0.00 | 52 | 1015.2 |
| 20260503022700 | 22 | 124 | 1.6 | 8.0 | 0.00 | 0.00 | 0.00 | 52 | 1015.2 |
| 20260503022200 | 22 | 180 | 6.4 | 12.9 | 0.00 | 0.00 | 0.00 | 51 | 1015.3 |
| 20260503021657 | 22 | 111 | 3.2 | 3.2 | 0.00 | 0.00 | 0.00 | 52 | 1015.2 |
| 20260503021153 | 22 | 191 | 4.8 | 8.0 | 0.00 | 0.00 | 0.00 | 51 | 1015.2 |
| 20260503020651 | 22 | 23 | 4.8 | 9.7 | 0.00 | 0.00 | 0.00 | 51 | 1015.2 |
| 20260503020148 | 22 | 4 | 4.8 | 11.3 | 0.00 | 0.00 | 0.00 | 51 | 1015.3 |
| 20260503015645 | 22 | 348 | 9.7 | 12.9 | 0.00 | 0.00 | 0.00 | 50 | 1015.0 |
| 20260503015142 | 22 | 160 | 1.6 | 11.3 | 0.00 | 0.00 | 0.00 | 50 | 1015.2 |
| 20260503014637 | 23 | 123 | 6.4 | 8.0 | 0.00 | 0.00 | 0.00 | 49 | 1015.2 |
| 20260503014136 | 23 | 132 | 3.2 | 4.8 | 0.00 | 0.00 | 0.00 | 49 | 1015.2 |
| 20260503013633 | 23 | 340 | 6.4 | 11.3 | 0.00 | 0.00 | 0.00 | 48 | 1015.3 |
| 20260503013131 | 23 | 332 | 12.9 | 22.5 | 0.00 | 0.00 | 0.00 | 48 | 1015.2 |
| 20260503012627 | 23 | 187 | 3.2 | 4.8 | 0.00 | 0.00 | 0.00 | 46 | 1015.1 |
| 20260503012124 | 23 | 161 | 1.6 | 11.3 | 0.00 | 0.00 | 0.00 | 46 | 1015.5 |
| 20260503011621 | 24 | 155 | 3.2 | 9.7 | 0.00 | 0.00 | 0.00 | 46 | 1015.5 |
| 20260503011118 | 24 | 158 | 1.6 | 3.2 | 0.00 | 0.00 | 0.00 | 46 | 1015.4 |
| 20260503010614 | 24 | 116 | 1.6 | 8.0 | 0.00 | 0.00 | 0.00 | 45 | 1015.4 |
| 20260503010112 | 24 | 32 | 8.0 | 11.3 | 0.00 | 0.00 | 0.00 | 45 | 1015.5 |
| 20260503005608 | 24 | 69 | 4.8 | 8.0 | 0.00 | 0.00 | 0.00 | 45 | 1015.6 |
| 20260503005106 | 23 | 300 | 8.0 | 11.3 | 0.00 | 0.00 | 0.00 | 46 | 1015.5 |
| 20260503004602 | 24 | 44 | 8.0 | 17.7 | 0.00 | 0.00 | 0.00 | 45 | 1015.4 |
| 20260503004101 | 24 | 241 | 6.4 | 9.7 | 0.00 | 0.00 | 0.00 | 46 | 1015.6 |
| 20260503003556 | 24 | 359 | 8.0 | 11.3 | 0.00 | 0.00 | 0.00 | 45 | 1015.5 |
| 20260503003054 | 25 | 150 | 1.6 | 9.7 | 0.00 | 0.00 | 0.00 | 45 | 1015.5 |
| 20260503002550 | 25 | 190 | 3.2 | 8.0 | 0.00 | 0.00 | 0.00 | 46 | 1015.6 |
| 20260503002048 | 25 | 155 | 3.2 | 9.7 | 0.00 | 0.00 | 0.00 | 45 | 1015.6 |
| 20260503001543 | 25 | 160 | 1.6 | 8.0 | 0.00 | 0.00 | 0.00 | 45 | 1015.6 |
| 20260503001041 | 25 | 164 | 6.4 | 9.7 | 0.00 | 0.00 | 0.00 | 45 | 1015.7 |
| 20260503000538 | 25 | 115 | 3.2 | 11.3 | 0.00 | 0.00 | 0.00 | 45 | 1015.6 |
| 20260503000035 | 25 | 76 | 6.4 | 11.3 | 0.00 | 0.00 | 0.00 | 45 | 1015.8 |
| 20260502235532 | 24 | 218 | 3.2 | 4.8 | 0.00 | 0.00 | 0.00 | 45 | 1015.9 |
| 20260502235030 | 24 | 218 | 4.8 | 8.0 | 0.00 | 0.00 | 0.00 | 45 | 1015.8 |
| 20260502234526 | 23 | 151 | 1.6 | 4.8 | 0.00 | 0.00 | 0.00 | 45 | 1015.8 |
| 20260502234023 | 24 | 25 | 8.0 | 12.9 | 0.00 | 0.00 | 0.00 | 45 | 1015.9 |
| 20260502233518 | 24 | 112 | 3.2 | 14.5 | 0.00 | 0.00 | 0.00 | 45 | 1016.1 |
| 20260502233016 | 24 | 170 | 4.8 | 8.0 | 0.00 | 0.00 | 0.00 | 44 | 1016.2 |
| 20260502232512 | 24 | 11 | 8.0 | 11.3 | 0.00 | 0.00 | 0.00 | 44 | 1016.2 |
| 20260502232009 | 24 | 212 | 4.8 | 8.0 | 0.00 | 0.00 | 0.00 | 43 | 1016.4 |
| 20260502231506 | 24 | 246 | 6.4 | 12.9 | 0.00 | 0.00 | 0.00 | 43 | 1016.2 |
| 20260502231004 | 23 | 113 | 3.2 | 11.3 | 0.00 | 0.00 | 0.00 | 44 | 1016.6 |
| 20260502230502 | 24 | 40 | 4.8 | 9.7 | 0.00 | 0.00 | 0.00 | 43 | 1016.6 |
| 20260502230000 | 24 | 185 | 4.8 | 11.3 | 0.00 | 0.00 | 0.00 | 43 | 1016.8 |
| 20260502225455 | 24 | 176 | 0.0 | 9.7 | 0.00 | 0.00 | 0.00 | 44 | 1016.8 |
| 20260502224952 | 24 | 173 | 8.0 | 11.3 | 0.00 | 0.00 | 0.00 | 45 | 1016.7 |
| 20260502224449 | 25 | 143 | 4.8 | 8.0 | 0.00 | 0.00 | 0.00 | 45 | 1016.7 |
| 20260502223946 | 24 | 220 | 4.8 | 11.3 | 0.00 | 0.00 | 0.00 | 46 | 1016.7 |
| 20260502223444 | 23 | 169 | 8.0 | 11.3 | 0.00 | 0.00 | 0.00 | 47 | 1016.8 |
| 20260502222941 | 23 | 201 | 4.8 | 9.7 | 0.00 | 0.00 | 0.00 | 48 | 1016.9 |
| 20260502222439 | 23 | 145 | 3.2 | 9.7 | 0.00 | 0.00 | 0.00 | 50 | 1017.0 |
| 20260502221934 | 23 | 237 | 11.3 | 20.9 | 0.00 | 0.00 | 0.00 | 50 | 1017.2 |
| 20260502221431 | 23 | 124 | 1.6 | 11.3 | 0.00 | 0.00 | 0.00 | 51 | 1017.2 |
| 20260502220928 | 23 | 78 | 3.2 | 8.0 | 0.00 | 0.00 | 0.00 | 55 | 1017.0 |
| 20260502220423 | 23 | 314 | 3.2 | 9.7 | 0.00 | 0.00 | 0.00 | 52 | 1017.0 |
| 20260502215920 | 23 | 173 | 4.8 | 17.7 | 0.00 | 0.00 | 0.00 | 52 | 1017.3 |
| 20260502215418 | 23 | 259 | 8.0 | 11.3 | 0.00 | 0.00 | 0.00 | 52 | 1017.2 |
| 20260502214914 | 23 | 194 | 3.2 | 11.3 | 0.00 | 0.00 | 0.00 | 53 | 1017.1 |
| 20260502214411 | 22 | 312 | 6.4 | 11.3 | 0.00 | 0.00 | 0.00 | 54 | 1017.5 |
| 20260502213909 | 22 | 99 | 4.8 | 9.7 | 0.00 | 0.00 | 0.00 | 53 | 1017.5 |
| 20260502213405 | 22 | 317 | 4.8 | 12.9 | 0.00 | 0.00 | 0.00 | 54 | 1017.1 |
| 20260502212904 | 22 | 206 | 3.2 | 12.9 | 0.00 | 0.00 | 0.00 | 53 | 1017.4 |
| 20260502212403 | 22 | 164 | 1.6 | 9.7 | 0.00 | 0.00 | 0.00 | 55 | 1017.4 |
| 20260502211859 | 22 | 295 | 9.7 | 14.5 | 0.00 | 0.00 | 0.00 | 53 | 1017.5 |
| 20260502211359 | 21 | 154 | 6.4 | 12.9 | 0.00 | 0.00 | 0.00 | 56 | 1017.5 |
| 20260502210858 | 22 | 355 | 14.5 | 16.1 | 0.00 | 0.00 | 0.00 | 55 | 1017.7 |
| 20260502210354 | 22 | 25 | 8.0 | 11.3 | 0.00 | 0.00 | 0.00 | 54 | 1017.6 |
| 20260502205852 | 22 | 189 | 1.6 | 8.0 | 0.00 | 0.00 | 0.00 | 55 | 1017.7 |
| 20260502205347 | 22 | 9 | 3.2 | 8.0 | 0.00 | 0.00 | 0.00 | 55 | 1017.6 |
| 20260502204845 | 22 | 167 | 1.6 | 4.8 | 0.00 | 0.00 | 0.00 | 53 | 1017.9 |
| 20260502204342 | 22 | 270 | 6.4 | 8.0 | 0.00 | 0.00 | 0.00 | 54 | 1017.9 |
| 20260502203839 | 22 | 16 | 6.4 | 20.9 | 0.00 | 0.00 | 0.00 | 56 | 1018.0 |
| 20260502203337 | 22 | 197 | 4.8 | 14.5 | 0.00 | 0.00 | 0.00 | 56 | 1017.9 |
| 20260502202833 | 21 | 77 | 8.0 | 16.1 | 0.00 | 0.00 | 0.00 | 56 | 1017.8 |
| 20260502202330 | 21 | 356 | 8.0 | 14.5 | 0.00 | 0.00 | 0.00 | 56 | 1018.1 |
| 20260502201828 | 21 | 327 | 14.5 | 16.1 | 0.00 | 0.00 | 0.00 | 57 | 1018.1 |
| 20260502201324 | 21 | 203 | 1.6 | 12.9 | 0.00 | 0.00 | 0.00 | 57 | 1018.3 |
| 20260502200820 | 21 | 126 | 4.8 | 11.3 | 0.00 | 0.00 | 0.00 | 57 | 1018.4 |
| 20260502200316 | 20 | 251 | 3.2 | 11.3 | 0.00 | 0.00 | 0.00 | 61 | 1018.3 |
| 20260502195815 | 20 | 209 | 3.2 | 11.3 | 0.00 | 0.00 | 0.00 | 60 | 1018.2 |
| 20260502195311 | 21 | 28 | 11.3 | 20.9 | 0.00 | 0.00 | 0.00 | 58 | 1018.4 |
| 20260502194808 | 21 | 22 | 8.0 | 12.9 | 0.00 | 0.00 | 0.00 | 58 | 1018.3 |
| 20260502194304 | 20 | 161 | 1.6 | 4.8 | 0.00 | 0.00 | 0.00 | 61 | 1018.3 |
| 20260502193800 | 20 | 165 | 4.8 | 12.9 | 0.00 | 0.00 | 0.00 | 62 | 1018.4 |
| 20260502193258 | 19 | 210 | 3.2 | 16.1 | 0.00 | 0.00 | 0.00 | 64 | 1018.7 |
| 20260502192757 | 17 | 135 | 4.8 | 9.7 | 0.00 | 0.00 | 0.00 | 69 | 1018.6 |
| 20260502192255 | 17 | 158 | 3.2 | 8.0 | 0.00 | 0.00 | 0.00 | 71 | 1019.0 |
| 20260502191753 | 16 | 185 | 3.2 | 3.2 | 0.00 | 0.00 | 0.00 | 72 | 1018.9 |
| 20260502191250 | 16 | 145 | 1.6 | 9.7 | 0.00 | 0.00 | 0.00 | 73 | 1019.0 |
| 20260502190747 | 16 | 218 | 3.2 | 11.3 | 0.00 | 0.00 | 0.00 | 74 | 1019.2 |
| 20260502190245 | 16 | 205 | 4.8 | 8.0 | 0.00 | 0.00 | 0.00 | 74 | 1019.2 |
| 20260502185744 | 15 | 182 | 8.0 | 8.0 | 0.00 | 0.00 | 0.00 | 74 | 1019.3 |
| 20260502185241 | 15 | 150 | 3.2 | 9.7 | 0.00 | 0.00 | 0.00 | 74 | 1019.3 |
| 20260502184737 | 17 | 218 | 11.3 | 16.1 | 0.00 | 0.00 | 0.00 | 70 | 1019.4 |
| 20260502184233 | 17 | 243 | 14.5 | 17.7 | 0.00 | 0.00 | 0.00 | 67 | 1019.2 |
| 20260502183730 | 17 | 238 | 9.7 | 14.5 | 0.00 | 0.00 | 0.00 | 67 | 1019.3 |
| 20260502183226 | 17 | 268 | 3.2 | 8.0 | 0.00 | 0.00 | 0.00 | 70 | 1019.3 |
| 20260502182721 | 16 | 202 | 6.4 | 11.3 | 0.00 | 0.00 | 0.00 | 74 | 1019.4 |
| 20260502182217 | 15 | 223 | 4.8 | 9.7 | 0.00 | 0.00 | 0.00 | 77 | 1019.2 |
| 20260502181714 | 14 | 139 | 1.6 | 4.8 | 0.00 | 0.00 | 0.00 | 78 | 1019.5 |
| 20260502181214 | 15 | 176 | 1.6 | 9.7 | 0.00 | 0.00 | 0.00 | 75 | 1019.4 |
| 20260502180710 | 16 | 80 | 3.2 | 8.0 | 0.00 | 0.00 | 0.00 | 70 | 1019.4 |
| 20260502180208 | 16 | 143 | 3.2 | 3.2 | 0.00 | 0.00 | 0.00 | 71 | 1019.3 |
| 20260502170126 | 13 | 189 | 3.2 | 4.8 | 0.00 | 0.00 | 0.00 | 81 | 1019.7 |
| 20260502164112 | 12 | 150 | 6.4 | 11.3 | 0.00 | 0.00 | 0.00 | 85 | 1019.9 |
| 20260502163609 | 12 | 202 | 4.8 | 8.0 | 0.00 | 0.00 | 0.00 | 85 | 1019.9 |
| 20260502163105 | 12 | 204 | 1.6 | 3.2 | 0.00 | 0.00 | 0.00 | 86 | 1019.8 |
| 20260502162602 | 11 | 175 | 3.2 | 4.8 | 0.00 | 0.00 | 0.00 | 87 | 1020.1 |
| 20260502162059 | 11 | 175 | 3.2 | 3.2 | 0.00 | 0.00 | 0.00 | 88 | 1019.9 |
| 20260502161556 | 11 | 153 | 4.8 | 4.8 | 0.00 | 0.00 | 0.00 | 88 | 1019.8 |
| 20260502161053 | 11 | 175 | 4.8 | 4.8 | 0.00 | 0.00 | 0.00 | 89 | 1019.9 |
| 20260502160551 | 11 | 148 | 1.6 | 3.2 | 0.00 | 0.00 | 0.00 | 90 | 1020.0 |
| 20260502152004 | 11 | 156 | 0.0 | 0.0 | 0.00 | 0.00 | 0.00 | 91 | 1019.7 |
| 20260502151501 | 11 | 162 | 0.0 | 3.2 | 0.00 | 0.00 | 0.00 | 92 | 1019.7 |
| 20260502150958 | 11 | 160 | 0.0 | 0.0 | 0.00 | 0.00 | 0.00 | 92 | 1019.8 |
| 20260502150455 | 11 | 155 | 0.0 | 1.6 | 0.00 | 0.00 | 0.00 | 92 | 1020.0 |
| 20260502130341 | 10 | 153 | 1.6 | 1.6 | 0.00 | 0.00 | 0.00 | 93 | 1019.8 |
| 20260502123323 | 10 | 154 | 0.0 | 0.0 | 0.00 | 0.00 | 0.00 | 93 | 1019.7 |
| 20260502122820 | 10 | 159 | 3.2 | 3.2 | 0.00 | 0.00 | 0.00 | 93 | 1020.0 |
| 20260502122316 | 10 | 154 | 1.6 | 3.2 | 0.00 | 0.00 | 0.00 | 93 | 1019.9 |
| 20260502121815 | 10 | 162 | 0.0 | 0.0 | 0.00 | 0.00 | 0.00 | 93 | 1019.8 |
| 20260502121312 | 10 | 156 | 0.0 | 0.0 | 0.00 | 0.00 | 0.00 | 93 | 1019.9 |
| 20260502120809 | 10 | 170 | 0.0 | 0.0 | 0.00 | 0.00 | 0.00 | 93 | 1020.1 |
| 20260502120305 | 10 | 156 | 0.0 | 0.0 | 0.00 | 0.00 | 0.00 | 92 | 1019.8 |
| 20260502115803 | 10 | 107 | 1.6 | 3.2 | 0.00 | 0.00 | 0.00 | 92 | 1020.0 |
| 20260502115300 | 10 | 118 | 0.0 | 1.6 | 0.00 | 0.00 | 0.00 | 92 | 1019.9 |
| 20260502114755 | 10 | 144 | 0.0 | 1.6 | 0.00 | 0.00 | 0.00 | 92 | 1019.5 |
| 20260502114253 | 10 | 153 | 0.0 | 0.0 | 0.00 | 0.00 | 0.00 | 91 | 1020.0 |
| 20260502113750 | 10 | 153 | 0.0 | 0.0 | 0.00 | 0.00 | 0.00 | 91 | 1019.9 |
| 20260502113248 | 10 | 144 | 1.6 | 1.6 | 0.00 | 0.00 | 0.00 | 91 | 1019.6 |
| 20260502112746 | 10 | 173 | 1.6 | 1.6 | 0.00 | 0.00 | 0.00 | 91 | 1020.0 |
| 20260502112243 | 10 | 158 | 0.0 | 0.0 | 0.00 | 0.00 | 0.00 | 91 | 1019.8 |
| 20260502111740 | 10 | 167 | 0.0 | 1.6 | 0.00 | 0.00 | 0.00 | 91 | 1020.0 |
| 20260502111237 | 10 | 142 | 0.0 | 1.6 | 0.00 | 0.00 | 0.00 | 91 | 1020.3 |
| 20260502110735 | 10 | 183 | 3.2 | 8.0 | 0.00 | 0.00 | 0.00 | 91 | 1020.1 |
| 20260502110232 | 10 | 177 | 1.6 | 3.2 | 0.00 | 0.00 | 0.00 | 91 | 1020.1 |
| 20260502105730 | 10 | 178 | 3.2 | 4.8 | 0.00 | 0.00 | 0.00 | 92 | 1020.6 |
| 20260502105226 | 10 | 142 | 8.0 | 11.3 | 0.00 | 0.00 | 0.00 | 93 | 1020.6 |
| 20260502104724 | 10 | 168 | 3.2 | 9.7 | 0.00 | 0.00 | 0.00 | 94 | 1020.5 |
| 20260502104221 | 10 | 153 | 1.6 | 3.2 | 0.00 | 0.00 | 0.00 | 94 | 1020.4 |
| 20260502103719 | 10 | 157 | 0.0 | 0.0 | 0.00 | 0.00 | 0.00 | 94 | 1020.3 |
| 20260502103217 | 10 | 156 | 0.0 | 0.0 | 0.00 | 0.00 | 0.00 | 93 | 1020.4 |
| 20260502102713 | 10 | 150 | 0.0 | 0.0 | 0.00 | 0.00 | 0.00 | 93 | 1019.8 |
| 20260502102210 | 10 | 160 | 0.0 | 1.6 | 0.00 | 0.00 | 0.00 | 93 | 1019.5 |
| 20260502101708 | 10 | 150 | 0.0 | 1.6 | 0.00 | 0.00 | 0.00 | 93 | 1019.6 |
| 20260502101206 | 10 | 149 | 0.0 | 0.0 | 0.00 | 0.00 | 0.00 | 92 | 1019.7 |
| 20260502100704 | 10 | 149 | 0.0 | 0.0 | 0.00 | 0.00 | 0.00 | 92 | 1019.4 |
| 20260502100202 | 10 | 153 | 1.6 | 1.6 | 0.00 | 0.00 | 0.00 | 92 | 1019.6 |
| 20260502091136 | 11 | 163 | 1.6 | 3.2 | 0.00 | 0.00 | 0.00 | 89 | 1019.4 |
| 20260502090633 | 11 | 157 | 0.0 | 0.0 | 0.00 | 0.00 | 0.00 | 89 | 1019.6 |
| 20260502090130 | 11 | 157 | 1.6 | 1.6 | 0.00 | 0.00 | 0.00 | 89 | 1019.6 |
| 20260502071522 | 12 | 160 | 1.6 | 1.6 | 0.00 | 0.00 | 0.00 | 82 | 1019.5 |
| 20260502071020 | 12 | 159 | 1.6 | 1.6 | 0.00 | 0.00 | 0.00 | 81 | 1019.3 |
| 20260502070517 | 12 | 154 | 0.0 | 0.0 | 0.00 | 0.00 | 0.00 | 80 | 1019.6 |
| 20260502070015 | 12 | 157 | 0.0 | 0.0 | 0.00 | 0.00 | 0.00 | 79 | 1019.3 |
| 20260502065514 | 13 | 157 | 0.0 | 0.0 | 0.00 | 0.00 | 0.00 | 78 | 1019.2 |
| 20260502065011 | 13 | 163 | 0.0 | 0.0 | 0.00 | 0.00 | 0.00 | 77 | 1019.2 |
| 20260502064509 | 13 | 163 | 0.0 | 1.6 | 0.00 | 0.00 | 0.00 | 76 | 1019.3 |
| 20260502064006 | 13 | 153 | 0.0 | 0.0 | 0.00 | 0.00 | 0.00 | 76 | 1019.2 |
| 20260502063504 | 13 | 147 | 1.6 | 1.6 | 0.00 | 0.00 | 0.00 | 74 | 1019.3 |
| 20260502063001 | 13 | 155 | 1.6 | 3.2 | 0.00 | 0.00 | 0.00 | 75 | 1019.2 |
| 20260502062458 | 13 | 141 | 0.0 | 1.6 | 0.00 | 0.00 | 0.00 | 74 | 1019.0 |